Flag for Faroe Islands Weather past 2 weeks in Tórshavn, Faroe Islands, Faroe Islands

Now
52 °F

Sprinkles. Low clouds.


Feels Like: 46 °F
Forecast: 49 / 57 °F
Wind: 17 mph from South

Location: Soervaag / Vagar

Current Time: Jul 1, 2015 at 6:34:23 AM

Latest Report: Jul 1, 2015 at 6:20 AM


Visibility: 4 mi

Pressure: 29.83 "Hg

Humidity: 100%

Dew point: 52 °F

Location of TórshavnLocation

Historic Weather in Tórshavn — Graph

°F

Tórshavn temperature yesterday

Maximum temperature yesterday: 55 °F (at 7:50 PM)
Minimum temperature yesterday: 48 °F (at 4:20 AM)
Average temperature yesterday: 51 °F

Past Weeks' High & Low Weather Summary

 TemperatureHumidityPressure
High55 °F (Jun 30, 7:50 PM)100% (Jun 16, 11:20 AM)30.15 "Hg (Jun 16, 11:20 AM)
Low43 °F (Jun 23, 11:50 PM)58% (Jun 23, 2:50 PM)29.59 "Hg (Jun 17, 4:20 AM)
Average48 °F89%29.91 "Hg
* Reported Jun 16 5:20 AM — Jul 1 5:20 AM, Tórshavn, Weather by CustomWeather, © 2015

Note: Actual official high and low records may vary slightly from our data, if they occured in-between our weather recording intervals... More about our weather records

Advertising

Tórshavn weather history for previous 24 hours

 ConditionsComfort  
Time TempWeatherWind HumidityBarometerVisibility
5:20 AM
Wed, Jul 1
52 °FFog.15 mph100%29.83 "Hg3 mi
4:50 AM52 °FFog.13 mph100%29.80 "Hg2 mi
4:20 AM52 °FLow clouds.15 mph100%29.80 "Hg3 mi
3:50 AM52 °FFog.14 mph100%29.80 "Hg1 mi
3:20 AM52 °FFog.14 mph100%29.83 "Hg1 mi
2:50 AM52 °FFog.16 mph100%29.80 "Hg1 mi
2:20 AM52 °FSprinkles. Low clouds.14 mph100%29.80 "Hg4 mi
1:50 AM52 °FSprinkles. Low clouds.14 mph100%29.80 "Hg3 mi
1:20 AM52 °FLight rain. Fog.14 mph100%29.83 "Hg3 mi
12:50 AM52 °FSprinkles. Fog.14 mph100%29.83 "Hg2 mi
12:20 AM52 °FSprinkles. Low clouds.14 mph100%29.80 "Hg3 mi
11:50 PM
Tue, Jun 30
52 °FLight rain. Low clouds.15 mph100%29.80 "Hg4 mi
11:20 PM54 °FSprinkles. Low clouds.20 mph100%29.80 "HgN/A
10:50 PM54 °FSprinkles. Low clouds.16 mph94%29.80 "HgN/A
10:20 PM54 °FLow clouds.18 mph94%29.80 "HgN/A
9:50 PM55 °FLow clouds.15 mph94%29.80 "HgN/A
9:20 PM54 °FLow clouds.15 mph100%29.80 "HgN/A
8:50 PM54 °FDrizzle. Low clouds.18 mph100%29.80 "HgN/A
8:20 PM55 °FLight rain. Partly sunny.15 mph94%29.80 "HgN/A
7:50 PM55 °FLight rain. Low clouds.17 mph94%29.80 "HgN/A
7:20 PM54 °FLight rain. Low clouds.15 mph100%29.80 "HgN/A
6:50 PM54 °FLight rain. Low clouds.17 mph100%29.80 "HgN/A
5:50 PM52 °FPartly sunny.12 mph100%29.80 "Hg4 mi
5:20 PM52 °FLow clouds.15 mph100%29.80 "Hg1 mi
4:50 PM50 °FLight rain. Fog.16 mph100%29.80 "Hg0 mi
3:50 PM50 °FSprinkles. Fog.17 mph100%29.80 "Hg1 mi
3:20 PM50 °FPartly sunny.20 mph100%29.80 "Hg6 mi
2:50 PM52 °FSprinkles. Low clouds.21 mph94%29.80 "Hg4 mi
1:50 PM52 °FSprinkles. Low clouds.21 mph94%29.80 "HgN/A
1:20 PM52 °FLight rain. Low clouds.21 mph94%29.83 "Hg4 mi
12:50 PM52 °FLight rain. Partly sunny.21 mph94%29.83 "Hg3 mi
12:20 PM52 °FSprinkles. Partly sunny.20 mph94%29.83 "Hg4 mi
11:50 AM50 °FSprinkles. Partly sunny.20 mph100%29.86 "Hg4 mi
11:20 AM52 °FLight rain. Partly sunny.18 mph94%29.86 "Hg5 mi
10:50 AM52 °FLight rain. Partly sunny.21 mph94%29.86 "HgN/A
10:20 AM52 °FLight rain. Partly sunny.22 mph94%29.86 "Hg6 mi
9:50 AM50 °FLight rain. Partly sunny.20 mph100%29.86 "Hg5 mi
9:20 AM50 °FLight rain. Low clouds.18 mph100%29.86 "Hg5 mi
8:50 AM50 °FLight rain. Low clouds.15 mph100%29.89 "HgN/A
8:20 AM50 °FLight rain. Low clouds.16 mph100%29.89 "Hg4 mi
7:50 AM50 °FLight rain. Partly sunny.17 mph100%29.89 "Hg4 mi
7:20 AM50 °FLight rain. Partly sunny.15 mph100%29.89 "Hg6 mi
6:50 AM50 °FLight rain. Partly sunny.14 mph100%29.89 "Hg4 mi
6:20 AM50 °FLight rain. Fog.13 mph94%29.89 "Hg1 mi
Weather by CustomWeather, © 2015

See weather overviewHow to use our weather pages